FW6313 Weather Reports


time (UTC)temp
C
wind
direction
speed
KPH
gust
KPH
rain 1hr
cm
rain 24hr
cm
rain mn
cm
humidity
%
barometer
mb
20260504190017 16 200 0.0 11.3 0.00 0.00 0.00 35 1000.8
20260504185515 16 268 0.0 8.0 0.00 0.00 0.00 38 1000.9
20260504185018 16 175 0.0 9.7 0.00 0.00 0.00 37 1000.9
20260504184518 16 175 0.0 9.7 0.00 0.00 0.00 36 1001.1
20260504184013 16 217 0.0 6.4 0.00 0.00 0.00 42 1001.1
20260504183512 15 217 0.0 8.0 0.00 0.00 0.00 43 1001.3
20260504183011 15 168 0.0 9.7 0.00 0.00 0.00 41 1001.4
20260504182509 15 190 3.2 9.7 0.00 0.00 0.00 39 1001.5
20260504182009 15 169 0.0 4.8 0.00 0.00 0.00 45 1001.6
20260504181509 15 216 0.0 4.8 0.00 0.00 0.00 46 1001.7
20260504181006 13 197 0.0 8.0 0.00 0.00 0.00 47 1001.7
20260504180506 13 149 0.0 11.3 0.00 0.00 0.00 44 1001.7
20260504180004 13 149 0.0 14.5 0.00 0.00 0.00 48 1001.8
20260504175504 13 186 6.4 14.5 0.00 0.00 0.00 45 1001.9
20260504175004 13 205 0.0 6.4 0.00 0.00 0.00 45 1001.8
20260504174503 13 209 0.0 6.4 0.00 0.00 0.00 43 1001.9
20260504174002 13 209 0.0 1.6 0.00 0.00 0.00 43 1001.8
20260504173501 14 209 0.0 9.7 0.00 0.00 0.00 41 1001.9
20260504173002 14 209 0.0 9.7 0.00 0.00 0.00 41 1002.0
20260504172501 14 272 0.0 11.3 0.00 0.00 0.00 43 1002.1
20260504172002 14 274 3.2 11.3 0.00 0.00 0.00 40 1002.1
20260504171505 15 105 0.0 12.9 0.00 0.00 0.00 39 1002.1
20260504171001 15 99 3.2 9.7 0.00 0.00 0.00 37 1002.1
20260504170501 15 98 0.0 9.7 0.00 0.00 0.00 38 1002.2
20260504151037 10 98 0.0 0.0 0.00 0.00 0.00 41 1003.2
20260504150536 10 98 0.0 0.0 0.00 0.00 0.00 42 1003.2
20260504141029 7 98 0.0 0.0 0.00 0.00 0.00 42 1003.3
20260504140529 7 98 0.0 0.0 0.00 0.00 0.00 42 1003.3
20260504130522 6 98 0.0 0.0 0.00 0.00 0.00 44 1003.3
20260504110510 5 98 0.0 0.0 0.00 0.00 0.00 39 1002.9
20260504100600 6 96 0.0 0.0 0.00 0.00 0.00 35 1002.1
20260504100115 6 96 0.0 0.0 0.00 0.00 0.00 35 1002.0
20260504081550 7 96 0.0 0.0 0.00 0.00 0.00 33 1002.7
20260504081049 7 96 0.0 0.0 0.00 0.00 0.00 34 1002.8
20260504080549 7 96 0.0 0.0 0.00 0.00 0.00 33 1002.7
20260504050529 10 199 0.0 0.0 0.00 0.00 0.00 25 1004.2
20260504050025 10 199 0.0 0.0 0.00 0.00 0.00 24 1004.2
20260504045524 10 199 0.0 0.0 0.00 0.00 0.00 24 1004.3
20260504045024 11 199 0.0 0.0 0.00 0.00 0.00 24 1004.3
20260504044526 11 199 0.0 0.0 0.00 0.00 0.00 24 1004.3
20260504044024 11 199 0.0 0.0 0.00 0.00 0.00 23 1004.3
20260504043524 11 199 0.0 0.0 0.00 0.00 0.00 23 1004.3
20260504043025 11 199 0.0 0.0 0.00 0.00 0.00 23 1004.5
20260504042523 11 199 0.0 0.0 0.00 0.00 0.00 22 1004.5
20260504042023 11 199 0.0 0.0 0.00 0.00 0.00 22 1004.5
20260504041524 11 199 0.0 0.0 0.00 0.00 0.00 22 1004.5
20260504041023 11 199 0.0 0.0 0.00 0.00 0.00 21 1004.4
20260504040523 11 199 0.0 0.0 0.00 0.00 0.00 21 1004.4
20260504040024 11 199 0.0 0.0 0.00 0.00 0.00 21 1004.4
20260504035524 11 199 0.0 0.0 0.00 0.00 0.00 21 1004.4
20260504035024 11 199 0.0 0.0 0.00 0.00 0.00 21 1004.4
20260504034531 11 199 0.0 0.0 0.00 0.00 0.00 21 1004.4
20260504034022 11 199 0.0 0.0 0.00 0.00 0.00 20 1004.4
20260504033522 11 199 0.0 0.0 0.00 0.00 0.00 20 1004.4
20260504033034 11 199 0.0 0.0 0.00 0.00 0.00 20 1004.4
20260504032521 11 199 0.0 0.0 0.00 0.00 0.00 21 1004.4
20260504032021 11 199 0.0 0.0 0.00 0.00 0.00 21 1004.4
20260504031528 11 199 0.0 0.0 0.00 0.00 0.00 22 1004.4
20260504031020 11 199 0.0 0.0 0.00 0.00 0.00 22 1004.3
20260504030520 12 199 0.0 0.0 0.00 0.00 0.00 22 1004.2
20260504030020 12 199 0.0 0.0 0.00 0.00 0.00 21 1004.2
20260504025519 12 199 0.0 0.0 0.00 0.00 0.00 21 1004.2
20260504025022 12 199 0.0 0.0 0.00 0.00 0.00 22 1004.1
20260504024539 12 199 0.0 0.0 0.00 0.00 0.00 21 1004.1
20260504024018 12 199 0.0 0.0 0.00 0.00 0.00 22 1004.1
20260504023519 12 199 0.0 0.0 0.00 0.00 0.00 21 1004.1
20260504023019 12 199 0.0 0.0 0.00 0.00 0.00 21 1004.1
20260504022519 12 199 0.0 0.0 0.00 0.00 0.00 21 1004.2
20260504022020 12 199 0.0 0.0 0.00 0.00 0.00 22 1004.1
20260504021518 13 199 0.0 0.0 0.00 0.00 0.00 22 1004.0
20260504021019 13 199 0.0 0.0 0.00 0.00 0.00 21 1004.1
20260504020519 13 199 0.0 0.0 0.00 0.00 0.00 21 1004.1
20260504020020 13 199 0.0 0.0 0.00 0.00 0.00 21 1004.0
20260504015518 13 199 0.0 0.0 0.00 0.00 0.00 22 1004.0
20260504015016 13 199 0.0 1.6 0.00 0.00 0.00 21 1004.1
20260504014516 13 199 0.0 1.6 0.00 0.00 0.00 21 1004.0
20260504014018 13 199 0.0 3.2 0.00 0.00 0.00 22 1004.0
20260504013516 13 199 0.0 3.2 0.00 0.00 0.00 22 1004.0
20260504013017 14 199 0.0 1.6 0.00 0.00 0.00 21 1004.0
20260504012516 14 199 0.0 3.2 0.00 0.00 0.00 21 1004.1
20260504012015 14 199 0.0 3.2 0.00 0.00 0.00 21 1004.2
20260504011515 14 199 0.0 4.8 0.00 0.00 0.00 22 1004.2
20260504011015 15 198 0.0 4.8 0.00 0.00 0.00 20 1004.2
20260504010519 15 196 0.0 4.8 0.00 0.00 0.00 19 1004.2
20260504010015 15 202 0.0 11.3 0.00 0.00 0.00 20 1004.2
20260504005514 15 206 0.0 11.3 0.00 0.00 0.00 20 1004.2
20260504005015 15 205 0.0 8.0 0.00 0.00 0.00 19 1004.1
20260504004532 15 201 0.0 4.8 0.00 0.00 0.00 20 1004.2
20260504004014 15 202 0.0 11.3 0.00 0.00 0.00 20 1004.2
20260504003514 15 202 1.6 16.1 0.00 0.00 0.00 19 1004.2
20260504003013 15 257 1.6 16.1 0.00 0.00 0.00 21 1004.2
20260504002512 15 223 0.0 16.1 0.00 0.00 0.00 20 1004.2
20260504002014 15 196 1.6 16.1 0.00 0.00 0.00 20 1004.3
20260504001511 16 194 0.0 19.3 0.00 0.00 0.00 22 1004.4
20260504001015 16 203 1.6 20.9 0.00 0.00 0.00 22 1004.4
20260504000511 16 254 1.6 12.9 0.00 0.00 0.00 22 1004.4
20260504000010 16 196 1.6 11.3 0.00 0.00 0.00 23 1004.4
20260503235509 16 234 0.0 8.0 0.00 0.00 0.00 23 1004.5
20260503235010 15 200 0.0 11.3 0.00 0.00 0.00 20 1004.5
20260503234509 15 188 0.0 8.0 0.00 0.00 0.00 22 1004.5
20260503234009 16 215 0.0 16.1 0.00 0.00 0.00 22 1004.5
20260503233509 16 215 0.0 16.1 0.00 0.00 0.00 20 1004.6
20260503233008 16 221 1.6 14.5 0.00 0.00 0.00 21 1004.5
20260503232511 16 254 1.6 25.7 0.00 0.00 0.00 22 1004.5
20260503232008 16 210 3.2 29.0 0.00 0.00 0.00 21 1004.4
20260503231509 16 202 1.6 29.0 0.00 0.00 0.00 21 1004.5
20260503231012 16 252 4.8 27.4 0.00 0.00 0.00 20 1004.6
20260503230507 16 242 3.2 14.5 0.00 0.00 0.00 21 1004.6
20260503230007 16 244 1.6 11.3 0.00 0.00 0.00 20 1004.7
20260503225506 16 201 3.2 11.3 0.00 0.00 0.00 22 1004.6
20260503225007 16 210 0.0 8.0 0.00 0.00 0.00 24 1004.6
20260503224506 16 229 0.0 8.0 0.00 0.00 0.00 21 1004.8
20260503224008 16 223 0.0 8.0 0.00 0.00 0.00 24 1004.7
20260503223504 16 189 0.0 6.4 0.00 0.00 0.00 25 1004.8
20260503223005 16 221 0.0 11.3 0.00 0.00 0.00 26 1004.9
20260503222504 16 265 0.0 11.3 0.00 0.00 0.00 25 1005.0
20260503222004 16 194 0.0 9.7 0.00 0.00 0.00 25 1005.0
20260503221504 16 211 0.0 24.1 0.00 0.00 0.00 26 1005.0
20260503221004 16 286 3.2 24.1 0.00 0.00 0.00 23 1004.8
20260503220503 16 204 0.0 1.6 0.00 0.00 0.00 26 1005.0
20260503220002 16 221 0.0 9.7 0.00 0.00 0.00 23 1005.1
20260503215502 17 217 0.0 19.3 0.00 0.00 0.00 23 1005.2
20260503215000 17 275 0.0 19.3 0.00 0.00 0.00 23 1005.4
20260503214609 18 268 3.2 22.5 0.00 0.00 0.00 24 1005.4
20260503214100 18 269 1.6 22.5 0.00 0.00 0.00 24 1005.5
20260503213559 18 205 0.0 22.5 0.00 0.00 0.00 25 1005.6
20260503213102 18 206 1.6 22.5 0.00 0.00 0.00 23 1005.5
20260503212559 18 207 1.6 11.3 0.00 0.00 0.00 23 1005.5
20260503212059 19 198 0.0 12.9 0.00 0.00 0.00 22 1005.7
20260503211604 19 231 0.0 14.5 0.00 0.00 0.00 24 1005.7
20260503211057 19 185 0.0 14.5 0.00 0.00 0.00 25 1005.8
20260503210557 18 192 1.6 22.5 0.00 0.00 0.00 24 1005.7
20260503210056 18 205 3.2 22.5 0.00 0.00 0.00 22 1005.9
20260503205555 18 337 0.0 16.1 0.00 0.00 0.00 22 1006.0
20260503205057 18 272 0.0 11.3 0.00 0.00 0.00 23 1006.3
20260503204555 18 248 0.0 11.3 0.00 0.00 0.00 25 1006.2
20260503204053 17 261 0.0 11.3 0.00 0.00 0.00 25 1006.4
20260503203553 17 205 0.0 8.0 0.00 0.00 0.00 25 1006.4
20260503203052 17 271 0.0 8.0 0.00 0.00 0.00 26 1006.5
20260503202552 17 177 0.0 12.9 0.00 0.00 0.00 22 1006.7
20260503202052 18 224 1.6 12.9 0.00 0.00 0.00 24 1006.8
20260503201552 19 266 0.0 8.0 0.00 0.00 0.00 21 1006.7
20260503201051 20 209 0.0 9.7 0.00 0.00 0.00 22 1006.7
20260503200550 19 209 0.0 16.1 0.00 0.00 0.00 25 1006.9
20260503200050 19 238 0.0 19.3 0.00 0.00 0.00 25 1007.0
20260503195550 18 250 4.8 19.3 0.00 0.00 0.00 24 1007.2
20260503195049 18 201 1.6 19.3 0.00 0.00 0.00 26 1007.1
20260503194550 19 232 3.2 19.3 0.00 0.00 0.00 23 1007.1
20260503194048 18 281 3.2 16.1 0.00 0.00 0.00 26 1007.0
20260503193548 18 201 0.0 16.1 0.00 0.00 0.00 26 1007.2
20260503193055 17 207 0.0 17.7 0.00 0.00 0.00 27 1007.2
20260503192547 18 209 0.0 17.7 0.00 0.00 0.00 25 1007.1
20260503192046 18 286 0.0 16.1 0.00 0.00 0.00 24 1007.3
20260503191546 18 238 1.6 16.1 0.00 0.00 0.00 25 1007.3
20260503191046 18 221 0.0 12.9 0.00 0.00 0.00 25 1007.4
20260503190546 18 209 0.0 8.0 0.00 0.00 0.00 23 1007.5